Previsão horária em Alibag

Hoje, 19 Junho, Sábado

Tempo Temperatura Precipitação Vento Pressão Humidade
00:00 +29°C° 0.9 mm 6 m/s 754 mmHg 83%
01:00 +29°C° 0.9 mm 6 m/s 753 mmHg 83%
02:00 +28°C° 0.9 mm 6 m/s 753 mmHg 83%
03:00 +28°C° 1.5 mm 6 m/s 753 mmHg 84%
04:00 +28°C° 1.5 mm 6 m/s 753 mmHg 84%
05:00 +28°C° 0 mm 6 m/s 753 mmHg 86%
06:00 +29°C° 1.1 mm 6 m/s 754 mmHg 84%
07:00 +29°C° 1.1 mm 6 m/s 754 mmHg 82%
08:00 +30°C° 1.1 mm 6 m/s 754 mmHg 80%
09:00 +30°C° 0.8 mm 6 m/s 755 mmHg 77%
10:00 +32°C° 0.8 mm 7 m/s 755 mmHg 74%
11:00 +32°C° 0 mm 7 m/s 755 mmHg 71%
12:00 +32°C° 1.1 mm 8 m/s 754 mmHg 72%
13:00 +32°C° 1.1 mm 8 m/s 754 mmHg 72%
14:00 +32°C° 1.1 mm 8 m/s 754 mmHg 73%
15:00 +32°C° 1.2 mm 8 m/s 754 mmHg 75%
16:00 +30°C° 1.2 mm 7 m/s 753 mmHg 77%
17:00 +30°C° 1.2 mm 7 m/s 753 mmHg 79%
18:00 +29°C° 0.7 mm 7 m/s 754 mmHg 80%
19:00 +29°C° 0.7 mm 7 m/s 754 mmHg 81%
20:00 +29°C° 0.7 mm 7 m/s 754 mmHg 81%
21:00 +29°C° 0.6 mm 7 m/s 755 mmHg 82%
22:00 +29°C° 0.6 mm 7 m/s 755 mmHg 82%
23:00 +29°C° 0.6 mm 7 m/s 755 mmHg 82%

Amanhã, 20 Junho, Domingo

Tempo Temperatura Precipitação Vento Pressão Humidade
00:00 +29°C° 0.8 mm 7 m/s 755 mmHg 82%
01:00 +28°C° 0.8 mm 6 m/s 754 mmHg 82%
02:00 +28°C° 0.8 mm 6 m/s 754 mmHg 82%
03:00 +28°C° 0.9 mm 6 m/s 754 mmHg 83%
04:00 +28°C° 0.9 mm 6 m/s 754 mmHg 84%
05:00 +28°C° 0.9 mm 6 m/s 754 mmHg 85%
06:00 +28°C° 1.3 mm 6 m/s 754 mmHg 83%
07:00 +29°C° 1.3 mm 7 m/s 755 mmHg 80%
08:00 +30°C° 1.3 mm 7 m/s 755 mmHg 78%
09:00 +30°C° 1.4 mm 7 m/s 755 mmHg 76%
10:00 +32°C° 1.4 mm 7 m/s 755 mmHg 75%
11:00 +32°C° 1.4 mm 8 m/s 755 mmHg 73%
12:00 +32°C° 0.9 mm 8 m/s 755 mmHg 73%
13:00 +32°C° 0.9 mm 7 m/s 755 mmHg 72%
14:00 +32°C° 0.9 mm 7 m/s 755 mmHg 72%
15:00 +32°C° 1.2 mm 7 m/s 755 mmHg 73%
16:00 +32°C° 1.2 mm 7 m/s 755 mmHg 74%
17:00 +30°C° 1.2 mm 6 m/s 755 mmHg 76%
18:00 +30°C° 1.2 mm 6 m/s 755 mmHg 77%
19:00 +29°C° 1.2 mm 6 m/s 755 mmHg 78%
20:00 +29°C° 1.2 mm 5 m/s 756 mmHg 80%
21:00 +29°C° 1 mm 5 m/s 756 mmHg 80%
22:00 +29°C° 1 mm 5 m/s 756 mmHg 81%
23:00 +28°C° 1 mm 5 m/s 756 mmHg 82%

Depois de amanhã, 21 Junho, Segunda-feira

Tempo Temperatura Precipitação Vento Pressão Humidade
00:00 +28°C° 0.9 mm 5 m/s 756 mmHg 83%
01:00 +28°C° 0.9 mm 5 m/s 755 mmHg 84%
02:00 +28°C° 0.9 mm 5 m/s 755 mmHg 85%
03:00 +27°C° 0.9 mm 4 m/s 755 mmHg 86%
04:00 +27°C° 0.9 mm 4 m/s 755 mmHg 87%
05:00 +27°C° 0.9 mm 4 m/s 755 mmHg 87%
06:00 +28°C° 0.9 mm 4 m/s 755 mmHg 84%
07:00 +29°C° 0.9 mm 4 m/s 756 mmHg 80%
08:00 +30°C° 0.9 mm 4 m/s 756 mmHg 76%
09:00 +30°C° 0.3 mm 4 m/s 756 mmHg 73%
10:00 +32°C° 0.3 mm 4 m/s 756 mmHg 70%
11:00 +33°C° 0.3 mm 5 m/s 756 mmHg 67%
12:00 +33°C° 0.2 mm 5 m/s 756 mmHg 66%
13:00 +33°C° 0.2 mm 5 m/s 756 mmHg 66%
14:00 +33°C° 0.2 mm 5 m/s 755 mmHg 66%
15:00 +33°C° 0.6 mm 5 m/s 755 mmHg 67%
16:00 +32°C° 0.6 mm 4 m/s 755 mmHg 68%
17:00 +32°C° 0.6 mm 4 m/s 755 mmHg 69%
18:00 +30°C° 0.3 mm 4 m/s 756 mmHg 73%
19:00 +30°C° 0.3 mm 3 m/s 756 mmHg 76%
20:00 +29°C° 0.3 mm 3 m/s 757 mmHg 80%
21:00 +29°C° 0 mm 3 m/s 757 mmHg 81%
22:00 +29°C° 0 mm 3 m/s 757 mmHg 82%
23:00 +29°C° 0 mm 3 m/s 757 mmHg 82%

22 Junho, Terça-feira

Tempo Temperatura Precipitação Vento Pressão Humidade
00:00 +28°C° 0.2 mm 3 m/s 756 mmHg 83%
01:00 +28°C° 0.2 mm 3 m/s 756 mmHg 84%
02:00 +28°C° 0.2 mm 3 m/s 755 mmHg 85%
03:00 +28°C° 0.6 mm 3 m/s 755 mmHg 85%
04:00 +28°C° 0.6 mm 3 m/s 756 mmHg 85%
05:00 +28°C° 0.6 mm 3 m/s 756 mmHg 85%
06:00 +29°C° 0.5 mm 3 m/s 756 mmHg 82%
07:00 +29°C° 0.5 mm 3 m/s 757 mmHg 80%
08:00 +30°C° 0.5 mm 3 m/s 757 mmHg 77%
09:00 +30°C° 0.4 mm 3 m/s 757 mmHg 73%
10:00 +31°C° 0.4 mm 3 m/s 757 mmHg 70%
11:00 +33°C° 0.4 mm 3 m/s 757 mmHg 67%
12:00 +33°C° 0.1 mm 3 m/s 757 mmHg 66%
13:00 +33°C° 0.1 mm 4 m/s 756 mmHg 65%
14:00 +33°C° 0.1 mm 4 m/s 756 mmHg 64%
15:00 +33°C° 0.1 mm 4 m/s 756 mmHg 65%
16:00 +33°C° 0.1 mm 4 m/s 756 mmHg 67%
17:00 +33°C° 0.1 mm 4 m/s 755 mmHg 68%
18:00 +31°C° 0.2 mm 3 m/s 756 mmHg 72%
19:00 +30°C° 0.2 mm 3 m/s 756 mmHg 76%
20:00 +30°C° 0.2 mm 3 m/s 757 mmHg 79%
21:00 +29°C° 0 mm 3 m/s 757 mmHg 80%
22:00 +29°C° 0 mm 3 m/s 757 mmHg 81%
23:00 +29°C° 0 mm 3 m/s 757 mmHg 82%

23 Junho, Quarta-feira

Tempo Temperatura Precipitação Vento Pressão Humidade
00:00 +29°C° 0.2 mm 3 m/s 756 mmHg 82%
01:00 +29°C° 0.2 mm 3 m/s 756 mmHg 83%
02:00 +29°C° 0.2 mm 3 m/s 755 mmHg 83%
03:00 +28°C° 0.3 mm 3 m/s 755 mmHg 84%
04:00 +28°C° 0.3 mm 3 m/s 755 mmHg 85%
05:00 +28°C° 0.3 mm 3 m/s 755 mmHg 86%
06:00 +29°C° 0.4 mm 3 m/s 756 mmHg 82%
07:00 +29°C° 0.4 mm 3 m/s 756 mmHg 79%
08:00 +30°C° 0.4 mm 3 m/s 757 mmHg 76%
09:00 +31°C° 0.2 mm 3 m/s 757 mmHg 73%
10:00 +31°C° 0.2 mm 3 m/s 757 mmHg 70%
11:00 +33°C° 0.2 mm 4 m/s 757 mmHg 67%
12:00 +33°C° 0.3 mm 4 m/s 756 mmHg 67%
13:00 +33°C° 0.3 mm 4 m/s 756 mmHg 67%
14:00 +33°C° 0.3 mm 4 m/s 756 mmHg 67%
15:00 +33°C° 0.3 mm 4 m/s 756 mmHg 67%
16:00 +33°C° 0.3 mm 3 m/s 755 mmHg 68%
17:00 +31°C° 0.3 mm 3 m/s 755 mmHg 69%
18:00 +31°C° 0.1 mm 3 m/s 756 mmHg 72%
19:00 +30°C° 0.1 mm 3 m/s 756 mmHg 75%
20:00 +30°C° 0.1 mm 3 m/s 756 mmHg 78%
21:00 +30°C° 0 mm 3 m/s 756 mmHg 79%
22:00 +29°C° 0 mm 3 m/s 756 mmHg 80%
23:00 +29°C° 0 mm 3 m/s 757 mmHg 81%

24 Junho, Quinta-feira

Tempo Temperatura Precipitação Vento Pressão Humidade
00:00 +29°C° 0.1 mm 3 m/s 756 mmHg 81%
01:00 +29°C° 0.1 mm 3 m/s 756 mmHg 82%
02:00 +29°C° 0.1 mm 4 m/s 755 mmHg 82%
03:00 +29°C° 0.3 mm 4 m/s 755 mmHg 82%
04:00 +28°C° 0.3 mm 4 m/s 755 mmHg 83%
05:00 +28°C° 0.3 mm 4 m/s 755 mmHg 83%
06:00 +29°C° 0.7 mm 4 m/s 755 mmHg 81%
07:00 +29°C° 0.7 mm 4 m/s 756 mmHg 78%
08:00 +30°C° 0.7 mm 4 m/s 756 mmHg 76%
09:00 +30°C° 0.8 mm 4 m/s 756 mmHg 72%
10:00 +32°C° 0.8 mm 5 m/s 756 mmHg 69%
11:00 +33°C° 0.8 mm 5 m/s 756 mmHg 66%
12:00 +33°C° 0.6 mm 5 m/s 756 mmHg 66%
13:00 +33°C° 0.6 mm 5 m/s 755 mmHg 66%
14:00 +33°C° 0.6 mm 6 m/s 755 mmHg 66%
15:00 +32°C° 0.7 mm 5 m/s 755 mmHg 68%
16:00 +32°C° 0.7 mm 5 m/s 755 mmHg 71%
17:00 +30°C° 0.7 mm 4 m/s 755 mmHg 73%
18:00 +30°C° 0.7 mm 4 m/s 755 mmHg 76%
19:00 +29°C° 0.7 mm 4 m/s 755 mmHg 79%
20:00 +29°C° 0.7 mm 3 m/s 755 mmHg 81%
21:00 +29°C° 0.5 mm 3 m/s 756 mmHg 82%
22:00 +29°C° 0.5 mm 3 m/s 756 mmHg 82%
23:00 +28°C° 0.5 mm 4 m/s 756 mmHg 82%
Mostrar mais